Home > Weather > Perth > Past weeks

Flag for United Kingdom Past Weather in Perth, Scotland, United Kingdom — Yesterday and Last 2 Weeks

Now
67 °F

Mild.


Feels Like: 67 °F
Forecast: 48 / 60 °F
Wind: 1 mph from Southeast

Location: Strathallan

Current Time: Aug 27, 2016 at 2:37:53 PM

Latest Report: Aug 27, 2016 at 1:00 PM


Visibility: 17 mi

Pressure: 30.09 "Hg

Humidity: 65%

Dew Point: 54 °F

Location of PerthLocation

Past Weather in Perth — Graph

°F

Perth Temperature Yesterday

Maximum temperature yesterday: 64 °F (at 3:00 PM)
Minimum temperature yesterday: 52 °F (at 11:00 PM)
Average temperature yesterday: 58 °F

High & Low Weather Summary for the Past Weeks

 TemperatureHumidityPressure
High75 °F (Aug 16, 3:00 PM)100% (Aug 15, 5:00 AM)30.32 "Hg (Aug 15, 5:00 AM)
Low44 °F (Aug 15, 4:00 AM)47% (Aug 24, 1:00 PM)29.35 "Hg (Aug 20, 1:00 PM)
Average58 °F86%29.99 "Hg
* Reported Aug 12 1:00 PM — Aug 27 1:00 PM, Perth, Weather by CustomWeather, © 2016

Note: Actual official high and low records may vary slightly from our data, if they occured in-between our weather recording intervals... More about our weather records

Advertising

Perth Weather History for the Previous 24 Hours

Scroll right to see more
 ConditionsComfort  
Time TempWeatherWind HumidityBarometerVisibility
1:00 PM
Sat, Aug 27
67 °FMild.1 mph65%30.09 "Hg17 mi
12:00 PM61 °FCool.1 mph74%30.11 "Hg15 mi
11:00 AM60 °FCool.2 mph83%30.12 "Hg19 mi
10:00 AM55 °FCool.1 mph89%30.12 "Hg19 mi
9:00 AM52 °FCool.1 mph97%30.12 "Hg17 mi
8:00 AM49 °FCool.1 mph99%30.11 "Hg19 mi
7:00 AM48 °FCool.1 mph99%30.10 "Hg16 mi
6:00 AM48 °FCool.2 mph99%30.10 "Hg11 mi
5:00 AM48 °FCool.1 mph98%30.09 "Hg9 mi
4:00 AM48 °FCool.3 mph99%30.08 "Hg9 mi
3:00 AM48 °FCool.2 mph95%30.08 "Hg7 mi
2:00 AM51 °FCool.6 mph96%30.07 "Hg10 mi
1:00 AM53 °FCool.9 mph92%30.06 "Hg17 mi
12:00 AM54 °FCool.8 mph88%30.06 "Hg22 mi
11:00 PM
Fri, Aug 26
52 °FCool.6 mph91%30.04 "Hg19 mi
10:00 PM55 °FCool.8 mph87%30.02 "Hg22 mi
8:00 PM58 °FCool.9 mph81%29.98 "Hg31 mi
7:00 PM60 °FCool.13 mph75%29.96 "Hg31 mi
6:00 PM60 °FCool.16 mph73%29.94 "Hg31 mi
5:00 PM62 °FCool.18 mph67%29.93 "Hg28 mi
3:00 PM64 °FMild.22 mph63%29.90 "Hg22 mi
2:00 PM61 °FCool.14 mph72%29.90 "Hg25 mi
Weather by CustomWeather, © 2016

See weather overviewHow to use our weather pages